Weather History for Marrakech, Morocco

Change the Weather History Date:

Friday, November 30, 2012

  Actual Average Record
Temperature  
Mean Temperature 54 °F -  
Max Temperature 63 °F 64 °F 77 °F (2011)
Min Temperature 44 °F 43 °F 33 °F (2003)
Degree Days  
Heating Degree Days 12    
Growing Degree Days 4 (Base 50)    
Moisture  
Dew Point 45 °F    
Average Humidity 78    
Maximum Humidity 100    
Minimum Humidity 31    
Precipitation  
Precipitation 0.12 in 0.04 in - ()
Sea Level Pressure  
Sea Level Pressure 30.00 in    
Wind  
Wind Speed 7 mph ()    
Max Wind Speed 20 mph    
Max Gust Speed 31 mph    
Visibility 6.0 miles    
Events Rain    
Averages and records for this station are not official NWS values.
T = Trace of Precipitation, MM = Missing Value Source: Averaged Metar Reports

Daily Weather History Graph

Daily Weather History Graph

Search for Another Location

Airport:

Trip Planner

Search our weather history database for the weather conditions in past years. The results will help you decide how hot, cold, wet, or windy it might be!

Date:

Astronomy

Nov. 30, 2012 Rise Set
Actual Time 7:13 AM WET 5:28 PM WET
Civil Twilight 6:46 AM WET 5:54 PM WET
Nautical Twilight 6:16 AM WET 6:24 PM WET
Astronomical Twilight 5:47 AM WET 6:54 PM WET
Moon 7:10 PM WET (11/30) 8:35 AM WET (11/30)
Length of Visible Light 11h 08m
Length of Day
10h 15m
Full, 97% of the Moon is Illuminated
Nov 30
Full
Dec 6
Last Quarter
Dec 13
New
Dec 20
First Quarter
Dec 28
Full

Hourly Weather History & Observations

Time (WET) Temp. Windchill Dew Point Humidity Pressure Visibility Wind Dir Wind Speed Gust Speed Precip Events Conditions
12:00 AM 51 °F - 48 °F 84% 30.11 in 6 mi East 8.1 mph - -   Partly Cloudy
12:00 AM 51.8 °F - 46.4 °F 82% 30.09 in 6.2 mi East 8.1 mph - N/A   Scattered Clouds
12:30 AM 51.8 °F - 46.4 °F 82% 30.09 in 6.2 mi ESE 8.1 mph - N/A   Scattered Clouds
1:00 AM 51.8 °F - 48.2 °F 88% 30.06 in 6.2 mi East 6.9 mph - N/A   Scattered Clouds
1:30 AM 51.8 °F - 46.4 °F 82% 30.06 in 6.2 mi ESE 5.8 mph - N/A   Scattered Clouds
2:00 AM 51.8 °F - 46.4 °F 82% 30.06 in 6.2 mi ENE 4.6 mph - N/A   Scattered Clouds
2:30 AM 48.2 °F - 44.6 °F 87% 30.06 in 6.2 mi East 4.6 mph - N/A   Scattered Clouds
3:00 AM 50 °F - 45 °F 78% 30.07 in 6 mi ESE 5.8 mph - -   Partly Cloudy
3:00 AM 50.0 °F - 46.4 °F 87% 30.06 in 6.2 mi ESE 5.8 mph - N/A   Scattered Clouds
3:30 AM 48.2 °F - 44.6 °F 87% 30.04 in 6.2 mi East 4.6 mph - N/A   Scattered Clouds
4:00 AM 48.2 °F - 44.6 °F 87% 30.04 in 6.2 mi East 3.5 mph - N/A   Scattered Clouds
4:30 AM 48.2 °F - 44.6 °F 87% 30.04 in 6.2 mi Calm Calm - N/A   Scattered Clouds
5:00 AM 46.4 °F - 44.6 °F 93% 30.04 in 6.2 mi Calm Calm - N/A   Scattered Clouds
5:30 AM 46.4 °F - 44.6 °F 93% 30.04 in 6.2 mi Calm Calm - N/A   Scattered Clouds
6:00 AM 46 °F - 43 °F 84% 30.07 in 6 mi Calm Calm - -   Scattered Clouds
6:00 AM 46.4 °F - 42.8 °F 87% 30.04 in 6.2 mi Calm Calm - N/A   Partly Cloudy
6:30 AM 44.6 °F - 42.8 °F 93% 30.04 in 6.2 mi South 1.2 mph - N/A   Partly Cloudy
7:00 AM 46.4 °F 45.2 °F 42.8 °F 87% 30.04 in 6.2 mi South 3.5 mph - N/A   Partly Cloudy
7:30 AM 44.6 °F - 41.0 °F 87% 30.04 in 6.2 mi Calm Calm - N/A   Partly Cloudy
8:00 AM 48.2 °F - 41.0 °F 76% 30.04 in 6.2 mi South 9.2 mph - N/A   Scattered Clouds
8:30 AM 50.0 °F - 42.8 °F 76% 30.04 in 6.2 mi South 3.5 mph - N/A   Scattered Clouds
9:00 AM 53 °F - 43 °F 60% 30.04 in 6 mi South 8.1 mph - -   Partly Cloudy
9:00 AM 53.6 °F - 42.8 °F 67% 30.04 in 6.2 mi South 9.2 mph - N/A   Scattered Clouds
9:30 AM 55.4 °F - 42.8 °F 63% 30.01 in 6.2 mi South 12.7 mph - N/A   Scattered Clouds
10:00 AM 57.2 °F - 41.0 °F 55% 30.01 in 5.6 mi South 11.5 mph - N/A   Scattered Clouds
10:30 AM 59.0 °F - 39.2 °F 48% 30.01 in 6.2 mi South 10.4 mph - N/A   Partly Cloudy
11:00 AM 59.0 °F - 37.4 °F 45% 30.01 in 6.2 mi SSW 11.5 mph - N/A   Partly Cloudy
11:30 AM 59.0 °F - 39.2 °F 48% 29.98 in 6.2 mi SW 10.4 mph - N/A   Partly Cloudy
12:00 PM 61 °F - 38 °F 31% 29.96 in 6 mi SSW 11.5 mph - -   Scattered Clouds
12:00 PM 60.8 °F - 39.2 °F 45% 29.98 in 6.2 mi SSW 11.5 mph - N/A   Scattered Clouds
12:30 PM 62.6 °F - 39.2 °F 42% 29.95 in 6.2 mi SW 11.5 mph - N/A   Scattered Clouds
1:00 PM 62.6 °F - 41.0 °F 45% 29.95 in 6.2 mi WSW 12.7 mph - N/A   Scattered Clouds
1:30 PM 62.6 °F - 39.2 °F 42% 29.92 in 6.2 mi West 15.0 mph - N/A   Scattered Clouds
2:00 PM 60.8 °F - 41.0 °F 48% 29.92 in 6.2 mi West 16.1 mph 27.6 mph N/A   Scattered Clouds
2:30 PM 59.0 °F - 44.6 °F 59% 29.92 in 6.2 mi WNW 18.4 mph 31.1 mph N/A   Mostly Cloudy
3:00 PM 58 °F - 46 °F 54% 29.92 in 6 mi West 18.4 mph - -   Partly Cloudy
3:00 PM 57.2 °F - 44.6 °F 63% 29.92 in 6.2 mi West 18.4 mph - N/A   Mostly Cloudy
3:30 PM 55.4 °F - 50.0 °F 82% 29.95 in 6.2 mi West 19.6 mph - N/A   Mostly Cloudy
4:00 PM 55.4 °F - 46.4 °F 72% 29.92 in 6.2 mi West 11.5 mph - N/A   Mostly Cloudy
4:30 PM 55.4 °F - 48.2 °F 77% 29.92 in 6.2 mi West 8.1 mph - N/A   Mostly Cloudy
5:00 PM 53.6 °F - 48.2 °F 82% 29.95 in 6.2 mi WSW 9.2 mph - N/A   Scattered Clouds
5:30 PM 53.6 °F - 50.0 °F 88% 29.95 in 6.2 mi WSW 4.6 mph - N/A   Scattered Clouds
6:00 PM 52 °F - 50 °F 89% 29.96 in 4 mi West 10.4 mph - - Rain Rain Showers
6:00 PM 51.8 °F - 50.0 °F 94% 29.95 in 3.7 mi West 10.4 mph - N/A Rain Rain Showers
6:30 PM 51.8 °F - 50.0 °F 94% 29.95 in 3.7 mi WNW 9.2 mph - N/A Rain Rain Showers
7:00 PM 51.8 °F - 50.0 °F 94% 29.95 in 6.2 mi WNW 6.9 mph - N/A   Scattered Clouds
7:30 PM 51.8 °F - 50.0 °F 94% 29.95 in 6.2 mi West 6.9 mph - N/A   Scattered Clouds
8:00 PM 51.8 °F - 50.0 °F 94% 29.95 in 6.2 mi WSW 6.9 mph - N/A   Mostly Cloudy
8:30 PM 50.0 °F - 50.0 °F 100% 29.95 in 6.2 mi WSW 9.2 mph - N/A   Mostly Cloudy
9:00 PM 50 °F - 50 °F 98% 29.98 in 6 mi WSW 8.1 mph - -   Partly Cloudy
9:00 PM 50.0 °F - 50.0 °F 100% 29.95 in 6.2 mi WSW 8.1 mph - N/A   Scattered Clouds
9:30 PM 50.0 °F - 50.0 °F 100% 29.95 in 6.2 mi WSW 9.2 mph - N/A   Scattered Clouds
10:00 PM 50.0 °F - 50.0 °F 100% 29.95 in 6.2 mi SW 10.4 mph - N/A   Scattered Clouds
10:30 PM 46.4 °F 41.5 °F 44.6 °F 93% 29.95 in 6.2 mi West 10.4 mph - N/A   Partly Cloudy
11:00 PM 46.4 °F 45.2 °F 44.6 °F 93% 29.95 in 6.2 mi West 3.5 mph - N/A   Partly Cloudy
11:30 PM 46.4 °F 45.2 °F 46.4 °F 100% 29.95 in 6.2 mi West 3.5 mph - N/A   Scattered Clouds